[[{"header":{"parameterUnit":"m.s-1","parameterCategory":1,"la1":30.2991,"la2":30.254,"lo1":-89.0895,"lo2":-89.0444,"dy":0.0017,"dx":0.0017,"nx":28,"ny":28,"refTime":"2024-08-04T09:00:00:Z","depth":0,"parameterNumber":2,"parameterNumberName":"U-component_of_WINDS"},"data":[0,0,0,0,0,0,0,0,0,0,0,0,0,0,0,0,0,0,0,0,0,0,0,0,0,0,0,0,0,0,0,0,0,0,0,0,0,0,0,0,0,0,0,0,0,0,0,0,0,0,0,0,0,0,0,0,0,0,-1.5675,-1.5675,0,-1.5672,-1.5672,-1.5672,-1.5628,-1.5627,-1.5626,-1.5625,-1.5622,-1.5623,-1.5623,0,0,0,0,0,0,0,0,0,0,0,0,0,-1.5645,-1.5645,-1.5675,-1.5675,-1.5675,-1.5672,-1.5672,-1.5672,-1.5629,-1.5627,-1.5626,-1.5625,-1.5621,-1.5622,-1.5624,0,0,0,0,0,0,0,0,0,0,0,0,0,-1.5651,-1.5646,-1.5675,-1.5653,-1.5651,-1.5672,-1.5672,-1.5672,-1.5629,-1.5627,-1.5626,-1.5624,-1.5621,-1.5622,-1.5624,-1.5665,0,0,-1.5628,-1.5629,0,0,0,0,0,0,0,0,-1.5651,-1.5652,-1.5657,-1.5655,-1.5653,-1.5649,-1.5659,-1.5669,-1.5629,-1.5637,-1.5625,-1.5623,-1.5632,-1.5632,-1.5635,-1.5665,-1.5665,-1.5628,-1.5629,-1.5629,-1.563,0,0,0,0,0,0,0,-1.5651,-1.5652,-1.5674,-1.5657,-1.5654,-1.5644,-1.5643,-1.5661,-1.5644,-1.5637,-1.5633,-1.5634,-1.5631,-1.5634,-1.5635,-1.5665,-1.5628,-1.5629,-1.563,-1.5631,-1.5727,-1.5729,0,0,0,0,0,0,-1.5653,-1.5652,-1.5674,-1.5674,-1.5648,-1.5645,-1.5644,-1.5652,-1.5644,-1.5641,-1.5635,-1.5632,-1.5633,-1.5633,-1.5635,-1.5682,-1.5629,-1.5631,-1.5632,-1.5725,-1.5728,-1.5729,0,0,0,0,0,0,-1.5653,-1.5656,-1.5674,-1.5662,-1.5664,-1.5648,-1.5656,-1.5653,-1.5656,-1.5642,-1.5639,-1.5642,-1.5631,-1.5633,-1.5658,-1.5681,-1.5631,-1.5633,-1.5723,-1.5726,-1.5728,-1.5778,0,0,0,0,0,0,-1.5652,-1.5656,-1.5671,-1.5663,-1.5665,-1.5697,-1.5658,-1.5654,-1.5658,-1.5654,-1.5648,-1.5645,-1.563,-1.5656,-1.5659,-1.5682,-1.5634,-1.5721,-1.5725,-1.5728,-1.5774,-1.5781,-1.5788,0,0,0,0,0,-1.5651,-1.5685,-1.5672,-1.5675,-1.5684,-1.5699,-1.57,-1.5682,-1.5661,-1.5676,-1.5667,-1.5645,-1.5678,-1.5659,-1.5662,-1.5686,-1.572,-1.5724,-1.5727,-1.577,-1.578,-1.5788,0,0,0,0,0,0,-1.5697,-1.5684,-1.5669,-1.5702,-1.5702,-1.5692,-1.571,-1.5692,-1.5698,-1.5694,-1.5671,-1.567,-1.5699,-1.5695,-1.5673,-1.5725,-1.5695,-1.57,-1.5727,-1.5736,-1.5743,-1.5743,-1.5635,0,0,0,0,0,-1.5711,-1.5724,-1.5712,-1.5742,-1.5743,-1.5727,-1.5733,-1.5719,-1.5718,-1.5718,-1.5711,-1.5711,-1.5721,-1.5728,-1.5737,-1.5773,-1.5771,-1.5791,-1.5798,-1.5804,-1.5809,-1.5827,-1.5836,-1.5742,-1.5742,-1.5742,0,0,-1.574,-1.5734,-1.5744,-1.5751,-1.5749,-1.5764,-1.5727,-1.5744,-1.5754,-1.572,-1.5743,-1.5738,-1.5736,-1.5767,-1.578,-1.5765,-1.5834,-1.5809,-1.5814,-1.5815,-1.5832,-1.5841,-1.5849,-1.5745,-1.5744,-1.5744,0,0,-1.5799,-1.5797,-1.5821,-1.582,-1.5818,-1.5807,-1.5813,-1.5806,-1.5801,-1.5824,-1.5798,-1.581,-1.5829,-1.5828,-1.5831,-1.589,-1.5871,-1.5894,-1.5931,-1.595,-1.5957,-1.5964,-1.5985,-1.5993,-1.5898,-1.5898,-1.5898,0,-1.5835,-1.5856,-1.5836,-1.5854,-1.5858,-1.5828,-1.5852,-1.5852,-1.5853,-1.5856,-1.5839,-1.5861,-1.5858,-1.5888,-1.5903,-1.5906,-1.5912,-1.5894,-1.5958,-1.5964,-1.597,-1.599,-1.5998,-1.5901,-1.5901,-1.5901,-1.59,0,-1.59,-1.5915,-1.5935,-1.5936,-1.5942,-1.5964,-1.5947,-1.5955,-1.5941,-1.5932,-1.5955,-1.595,-1.5957,-1.5964,-1.595,-1.5992,-1.5982,-1.5962,-1.5931,-1.5982,-1.6,-1.6008,-1.5905,-1.5904,-1.5903,-1.5903,0,0,-1.5989,-1.5979,-1.5986,-1.5987,-1.5982,-1.5993,-1.6013,-1.602,-1.6027,-1.6029,-1.6045,-1.6061,-1.6042,-1.6045,-1.6031,-1.6047,-1.6094,-1.6024,-1.6024,-1.6037,-1.614,-1.6155,-1.6164,-1.6081,-1.6082,-1.6083,-1.614,0,-1.6046,-1.6079,-1.6062,-1.6098,-1.6111,-1.6082,-1.6099,-1.6099,-1.6091,-1.6101,-1.6092,-1.6104,-1.6078,-1.6079,-1.6094,-1.6085,-1.6114,-1.6081,-1.6096,-1.6096,-1.6097,-1.6174,-1.619,-1.6244,-1.6147,-1.6148,-1.6149,0,-1.6117,-1.6122,-1.6159,-1.6152,-1.6156,-1.6172,-1.6177,-1.6187,-1.6185,-1.6179,-1.6182,-1.6163,-1.6182,-1.6152,-1.6178,-1.6156,-1.616,-1.6157,-1.6159,-1.6159,-1.6126,-1.6176,-1.626,-1.6268,-1.616,-1.6159,-1.6158,0,-1.6178,-1.6193,-1.6217,-1.6218,-1.6211,-1.6222,-1.622,-1.6216,-1.6222,-1.6226,-1.6229,-1.6235,-1.6239,-1.6244,-1.6228,-1.6208,-1.6256,-1.6225,-1.6251,-1.6251,-1.6262,-1.6262,-1.6348,-1.6266,-1.6266,-1.6266,-1.6266,0,-1.6243,-1.6267,-1.6244,-1.6259,-1.6285,-1.6264,-1.629,-1.6284,-1.6282,-1.6295,-1.6271,-1.6284,-1.6262,-1.6273,-1.626,-1.6283,-1.6285,-1.628,-1.6276,-1.6282,-1.6283,-1.6285,-1.6281,-1.6268,-1.6267,-1.6267,-1.6267,0,-1.6315,-1.6301,-1.6325,-1.6316,-1.6314,-1.6333,-1.6325,-1.6338,-1.6329,-1.6346,-1.6348,-1.6334,-1.6345,-1.633,-1.6339,-1.6331,-1.6363,-1.6354,-1.6363,-1.636,-1.6388,-1.6385,-1.6478,-1.6489,-1.64,-1.6401,-1.6402,0,-1.6358,-1.6375,-1.6368,-1.6375,-1.6374,-1.6385,-1.639,-1.6371,-1.6377,-1.6377,-1.639,-1.6399,-1.6405,-1.6425,-1.6415,-1.6422,-1.6413,-1.6445,-1.6414,-1.6419,-1.6413,-1.6412,-1.6414,-1.6451,-1.6453,-1.6453,-1.6454,0,-1.6435,-1.6427,-1.6435,-1.6441,-1.6448,-1.6451,-1.6453,-1.646,-1.644,-1.6448,-1.646,-1.6465,-1.6474,-1.6484,-1.6489,-1.6486,-1.6467,-1.6464,-1.647,-1.6476,-1.6481,-1.6478,-1.638,-1.6462,-1.6461,-1.6461,-1.646,-1.646,-1.6493,-1.6507,-1.6504,-1.6514,-1.6513,-1.6516,-1.6528,-1.652,-1.6529,-1.6535,-1.6523,-1.6537,-1.6535,-1.6539,-1.6539,-1.655,-1.6536,-1.6545,-1.6547,-1.655,-1.6554,-1.648,-1.655,-1.655,-1.655,-1.655,-1.655,0,-1.6569,-1.6565,-1.6575,-1.6578,-1.6586,-1.6567,-1.6568,-1.6576,-1.6589,-1.6588,-1.6595,-1.6608,-1.6617,-1.6608,-1.6615,-1.6625,-1.6617,-1.6628,-1.6627,-1.6626,-1.6566,-1.656,-1.6635,-1.6635,-1.6635,-1.6635,-1.6635,-1.6635,-1.6609,-1.6632,-1.6624,-1.6646,-1.6642,-1.6656,-1.6658,-1.666,-1.6659,-1.6675,-1.6682,-1.6676,-1.6672,-1.6679,-1.6686,-1.6683,-1.6687,-1.6701,-1.6695,-1.6639,-1.6631,-1.6623,-1.6616,-1.6702,-1.6702,-1.6754,-1.6755,-1.6755]},{"header":{"parameterUnit":"m.s-1","parameterCategory":1,"la1":30.2991,"la2":30.254,"lo1":-89.0895,"lo2":-89.0444,"dy":0.0017,"dx":0.0017,"nx":28,"ny":28,"refTime":"2024-08-04T09:00:00:Z","depth":0,"parameterNumber":3,"parameterNumberName":"V-component_of_WINDS"},"data":[0,0,0,0,0,0,0,0,0,0,0,0,0,0,0,0,0,0,0,0,0,0,0,0,0,0,0,0,0,0,0,0,0,0,0,0,0,0,0,0,0,0,0,0,0,0,0,0,0,0,0,0,0,0,0,0,0,0,-2.2403,-2.2403,0,-2.2477,-2.2478,-2.2479,-2.2512,-2.2512,-2.2512,-2.2512,-2.2586,-2.2588,-2.259,0,0,0,0,0,0,0,0,0,0,0,0,0,-2.2286,-2.2288,-2.2402,-2.2403,-2.2404,-2.2477,-2.2478,-2.2479,-2.2512,-2.2512,-2.2512,-2.2512,-2.2585,-2.2588,-2.259,0,0,0,0,0,0,0,0,0,0,0,0,0,-2.2346,-2.2289,-2.2402,-2.243,-2.2433,-2.2477,-2.2478,-2.2479,-2.2512,-2.2512,-2.2512,-2.2512,-2.2584,-2.2587,-2.259,-2.2612,0,0,-2.26,-2.2601,0,0,0,0,0,0,0,0,-2.2343,-2.2351,-2.2425,-2.2428,-2.2431,-2.2485,-2.2464,-2.2524,-2.2512,-2.2482,-2.2512,-2.2512,-2.2552,-2.2558,-2.2572,-2.2616,-2.2619,-2.26,-2.2602,-2.2603,-2.2604,0,0,0,0,0,0,0,-2.2339,-2.2348,-2.2432,-2.2426,-2.243,-2.2437,-2.2446,-2.2476,-2.2517,-2.2484,-2.2487,-2.2496,-2.2554,-2.2569,-2.2574,-2.262,-2.26,-2.2603,-2.2605,-2.2606,-2.2686,-2.2686,0,0,0,0,0,0,-2.233,-2.2344,-2.243,-2.2434,-2.2386,-2.244,-2.2449,-2.2468,-2.2517,-2.2524,-2.2496,-2.2497,-2.2564,-2.2571,-2.2577,-2.2606,-2.2603,-2.2606,-2.2608,-2.2685,-2.2686,-2.2686,0,0,0,0,0,0,-2.2328,-2.2338,-2.2427,-2.239,-2.2402,-2.2442,-2.2463,-2.247,-2.2485,-2.2525,-2.2532,-2.2504,-2.2564,-2.2573,-2.2604,-2.2609,-2.2608,-2.261,-2.2685,-2.2685,-2.2686,-2.2664,0,0,0,0,0,0,-2.2324,-2.2337,-2.2346,-2.239,-2.2404,-2.2452,-2.2463,-2.2471,-2.249,-2.2493,-2.2535,-2.2541,-2.2565,-2.2599,-2.2607,-2.2613,-2.2613,-2.2685,-2.2685,-2.2686,-2.2665,-2.2664,-2.2663,0,0,0,0,0,-2.232,-2.2336,-2.2346,-2.2356,-2.2416,-2.2453,-2.246,-2.2488,-2.2491,-2.25,-2.2526,-2.254,-2.2607,-2.2602,-2.2611,-2.2619,-2.2684,-2.2685,-2.2686,-2.2665,-2.2664,-2.2663,0,0,0,0,0,0,-2.2291,-2.2342,-2.2354,-2.2385,-2.2414,-2.2458,-2.2471,-2.2486,-2.2514,-2.2515,-2.2547,-2.2556,-2.2584,-2.2605,-2.2597,-2.2643,-2.2647,-2.265,-2.2628,-2.2628,-2.2627,-2.2622,-2.2615,0,0,0,0,0,-2.2288,-2.2314,-2.2358,-2.2381,-2.2395,-2.243,-2.2447,-2.2466,-2.2497,-2.2509,-2.2538,-2.2567,-2.2595,-2.2612,-2.264,-2.2668,-2.2677,-2.2678,-2.2677,-2.2676,-2.2678,-2.2694,-2.2695,-2.2688,-2.2688,-2.2688,0,0,-2.2282,-2.2314,-2.2328,-2.2376,-2.2401,-2.2426,-2.244,-2.2467,-2.2486,-2.2513,-2.2544,-2.2566,-2.2601,-2.263,-2.2645,-2.2648,-2.2682,-2.2677,-2.2676,-2.2678,-2.2695,-2.2696,-2.2696,-2.2688,-2.2688,-2.2688,0,0,-2.2285,-2.2312,-2.2334,-2.2359,-2.2397,-2.2421,-2.2426,-2.2468,-2.2483,-2.2516,-2.2536,-2.2559,-2.2607,-2.2631,-2.2649,-2.2662,-2.2676,-2.267,-2.2666,-2.2682,-2.2682,-2.2683,-2.2688,-2.2689,-2.2672,-2.2672,-2.2671,0,-2.2273,-2.2314,-2.2343,-2.2369,-2.239,-2.2416,-2.2439,-2.2461,-2.2506,-2.2519,-2.2522,-2.2582,-2.2608,-2.2643,-2.2647,-2.266,-2.2667,-2.2665,-2.268,-2.2681,-2.2682,-2.2687,-2.2689,-2.2671,-2.2671,-2.2671,-2.2671,0,-2.2297,-2.2325,-2.2338,-2.2382,-2.2404,-2.2428,-2.246,-2.2479,-2.2495,-2.2518,-2.2551,-2.2582,-2.2617,-2.2627,-2.2643,-2.2665,-2.2666,-2.2674,-2.2679,-2.2681,-2.2686,-2.2689,-2.2669,-2.267,-2.267,-2.267,0,0,-2.2284,-2.2344,-2.2348,-2.2369,-2.2413,-2.2434,-2.2459,-2.2494,-2.2509,-2.2539,-2.2561,-2.2601,-2.2609,-2.263,-2.2649,-2.2663,-2.2671,-2.267,-2.2671,-2.2669,-2.2698,-2.2691,-2.2693,-2.2681,-2.2681,-2.2682,-2.2695,0,-2.2293,-2.234,-2.2368,-2.2403,-2.2429,-2.2455,-2.2477,-2.2506,-2.2528,-2.2553,-2.2577,-2.2605,-2.2613,-2.2626,-2.2641,-2.2667,-2.2677,-2.2666,-2.2701,-2.2702,-2.2692,-2.2695,-2.2688,-2.2699,-2.2697,-2.2697,-2.2697,0,-2.231,-2.234,-2.2379,-2.242,-2.2432,-2.2451,-2.2486,-2.2509,-2.2543,-2.2558,-2.2582,-2.2601,-2.2628,-2.2631,-2.2669,-2.2661,-2.2677,-2.2692,-2.2693,-2.2697,-2.27,-2.27,-2.2703,-2.2705,-2.2701,-2.2701,-2.27,0,-2.2297,-2.2347,-2.2377,-2.2393,-2.2442,-2.2455,-2.2476,-2.2509,-2.2529,-2.2558,-2.2571,-2.2604,-2.2621,-2.2646,-2.2673,-2.2673,-2.2708,-2.2713,-2.2721,-2.272,-2.2727,-2.2727,-2.2733,-2.2737,-2.2737,-2.2737,-2.2737,0,-2.2304,-2.2327,-2.2371,-2.2389,-2.2415,-2.2447,-2.2471,-2.2494,-2.2523,-2.2546,-2.257,-2.2591,-2.2626,-2.2651,-2.2672,-2.27,-2.2708,-2.2721,-2.2726,-2.2719,-2.2717,-2.2729,-2.2729,-2.2738,-2.2738,-2.2738,-2.2738,0,-2.2294,-2.2324,-2.2358,-2.2402,-2.2414,-2.2431,-2.2468,-2.2487,-2.251,-2.2539,-2.2547,-2.2584,-2.2615,-2.2645,-2.2685,-2.27,-2.2728,-2.2735,-2.2717,-2.272,-2.2726,-2.2725,-2.2741,-2.2745,-2.2746,-2.2746,-2.2746,0,-2.2296,-2.2314,-2.236,-2.2378,-2.2398,-2.2426,-2.2446,-2.2477,-2.2497,-2.2537,-2.255,-2.2583,-2.2611,-2.2658,-2.2688,-2.272,-2.2728,-2.2732,-2.2733,-2.2725,-2.2728,-2.2727,-2.2729,-2.2731,-2.273,-2.273,-2.273,0,-2.2298,-2.2313,-2.2341,-2.2375,-2.2399,-2.2427,-2.2455,-2.2468,-2.2505,-2.2526,-2.2558,-2.2579,-2.2622,-2.2654,-2.2689,-2.271,-2.2726,-2.273,-2.2733,-2.2726,-2.2714,-2.2721,-2.2715,-2.2729,-2.2729,-2.2729,-2.2729,-2.2729,-2.2295,-2.2312,-2.2347,-2.2378,-2.2403,-2.243,-2.2449,-2.2476,-2.2503,-2.254,-2.2557,-2.2589,-2.2622,-2.2671,-2.2692,-2.2718,-2.2722,-2.2727,-2.2728,-2.2729,-2.2727,-2.271,-2.2724,-2.2724,-2.2724,-2.2724,-2.2724,0,-2.2298,-2.2322,-2.235,-2.239,-2.2414,-2.2428,-2.2461,-2.248,-2.2508,-2.2538,-2.2565,-2.2602,-2.2633,-2.2666,-2.2699,-2.2713,-2.2722,-2.2721,-2.272,-2.2725,-2.2722,-2.2715,-2.2714,-2.2714,-2.2714,-2.2714,-2.2714,-2.2714,-2.2302,-2.2333,-2.2351,-2.2394,-2.2418,-2.245,-2.2468,-2.2492,-2.2516,-2.2556,-2.2583,-2.2604,-2.2635,-2.2671,-2.27,-2.2709,-2.272,-2.2717,-2.2728,-2.2724,-2.2725,-2.2726,-2.272,-2.2719,-2.2719,-2.2729,-2.2729,-2.2729]}]]